Flag for Germany Weather past 2 weeks in Viersen, North Rhine-Westphalia, Germany

Now
95 °F

Passing clouds.


Feels Like: 96 °F
Forecast: 68 / 86 °F
Wind: 5 mph from North

Location: Monchengladbach Airport

Current Time: Jul 4, 2015 at 5:49:20 PM

Latest Report: Jul 4, 2015 at 5:20 PM


Visibility: N/A

Pressure: 30.07 "Hg

Humidity: 34%

Dew point: 63 °F

Location of ViersenLocation

Historic Weather in Viersen — Graph

°F

Viersen temperature yesterday

Maximum temperature yesterday: 91 °F (at 5:50 PM)
Minimum temperature yesterday: 70 °F (at 7:50 AM)
Average temperature yesterday: 84 °F

Past Weeks' High & Low Weather Summary

 TemperatureHumidityPressure
High99 °F (Jul 2, 3:50 PM)100% (Jun 20, 7:20 AM)30.24 "Hg (Jun 20, 7:20 AM)
Low50 °F (Jun 22, 8:20 PM)29% (Jun 30, 5:50 PM)29.71 "Hg (Jun 22, 6:20 PM)
Average71 °F61%30.07 "Hg
* Reported Jun 19 4:20 PM — Jul 4 4:20 PM, Viersen, Weather by CustomWeather, © 2015

Note: Actual official high and low records may vary slightly from our data, if they occured in-between our weather recording intervals... More about our weather records

Advertising

Viersen weather history for previous 24 hours

 ConditionsComfort  
Time TempWeatherWind HumidityBarometerVisibility
4:20 PM
Sat, Jul 4
95 °FPassing clouds.8 mph32%30.07 "HgN/A
3:50 PM95 °FPassing clouds.8 mph32%30.07 "HgN/A
3:20 PM95 °FPassing clouds.10 mph30%30.07 "HgN/A
2:50 PM95 °FPassing clouds.6 mph36%30.07 "HgN/A
2:20 PM93 °FPassing clouds.9 mph34%30.07 "HgN/A
1:50 PM93 °FPassing clouds.9 mph34%30.07 "HgN/A
1:20 PM93 °FPassing clouds.9 mph39%30.07 "HgN/A
12:50 PM93 °FSunny.8 mph41%30.04 "Hg10 mi
12:20 PM93 °FSunny.5 mph47%30.04 "Hg10 mi
11:50 AM90 °FPassing clouds.6 mph49%30.04 "HgN/A
11:20 AM90 °FSunny.6 mph49%30.04 "Hg10 mi
10:50 AM88 °FPassing clouds.7 mph52%30.04 "HgN/A
10:20 AM86 °FPassing clouds.7 mph59%30.04 "HgN/A
9:50 AM84 °FPassing clouds.6 mph62%30.04 "HgN/A
9:20 AM82 °FPassing clouds.9 mph66%30.04 "HgN/A
8:50 AM81 °FPassing clouds.6 mph70%30.04 "HgN/A
8:20 AM81 °FClear.5 mph70%30.04 "Hg5 mi
7:50 AM79 °FClear.5 mph74%30.04 "Hg5 mi
8:20 PM
Fri, Jul 3
88 °FPassing clouds.6 mph52%30.15 "HgN/A
7:50 PM88 °FPassing clouds.8 mph52%30.15 "HgN/A
7:20 PM90 °FClear.7 mph49%30.15 "Hg10 mi
6:50 PM91 °FClear.3 mph44%30.15 "Hg10 mi
6:20 PM91 °FClear.3 mph41%30.15 "Hg10 mi
5:50 PM91 °FClear.3 mph41%30.15 "Hg10 mi
5:20 PM90 °FPassing clouds.5 mph43%30.18 "HgN/A
Weather by CustomWeather, © 2015

See weather overviewHow to use our weather pages